ボリソフ彗星

C/2023 T2 ( Borisov )

English version
Home page
Updated on February 27, 2024

---------------------------------------------------------------------

・ プロフィール

発見日 2023年10月14日
発見光度 19.4等
発見者 Gennady Borisov (MARGO observatory near Nauchnij, Crimea)

・ 写真集

・ 軌道要素

Epoch 2023 Sept. 13.0 TT = JDT 2460200.5
T 2023 Dec. 22.78448 TT                                 Rudenko
q   1.9954650            (2000.0)            P               Q
z  +0.0043205      Peri.  111.18711     +0.14968423     -0.84921543
 +/-0.0000023      Node   317.53711     +0.36303611     +0.52358895
e   0.9913785      Incl.   48.59713     +0.91967354     -0.06846727
>From 320 observations 2023 Oct. 14-2024 Jan. 22, mean residual 0".5.

・ 光度変化

        m1 = 13.5 + 5 logΔ + 10.0 log r

---------------------------------------------------------------------

軌道要素はM.P.E.C. 2024-B140に掲載されたものです。
光度グラフはComet for Windowsで作成したものです。

---------------------------------------------------------------------

Copyright(C) Seiichi Yoshida (comet@aerith.net). All rights reserved.